Location: Barrio Las Umbrías
(40.4173°N, 4.8685°W)
Time: 12:00:00
(UTC+00:00)

PSLV R/B - Pass Details

Date: 17 August 2022
Orbit: 563 x 595 km, 98.1° (Epoch: 27 September)

Event Time Altitude Azimuth Distance (km) Brightness Sun altitude
Rises 20:47:55 0° 14° (NNE) 2,820 7.7 -16.8°
Reaches altitude 10° 20:50:06 10° 16° (NNE) 1,910 6.8 -17.1°
Maximum altitude 20:54:15 78° 102° (ESE) 597 3.8 -17.8°
Enters shadow 20:57:15 18° 188° (S) 1,441 5.7 -18.2°
